{"data":{"norad_id":81405,"intl_designator":"","name":"UNKNOWN","alt_names":[],"object_type":"UNKNOWN","status":"UNKNOWN","operator":null,"country":null,"launch_date":null,"launch_site_code":null,"launch_vehicle":null,"mission":null,"orbit_class":"UNKNOWN","rcs_meters":null,"size_class":null,"mass_kg":null,"dimensions":null,"purposes":[],"wikipedia_slug":null,"has_3d_model":false,"image_url":null,"decayed_at":null,"tle_current":{"epoch":"2026-05-23T21:35:34.009152Z","epoch_age_seconds":180665,"freshness":"STALE","line1":"1 81405U          26143.89969918  .00001116  00000+0  85798-3 0  9991","line2":"2 81405  99.4531 199.5989 0161426 149.7271 211.3333 13.89362769584313","mean_motion":13.89362769,"eccentricity":0.0161426,"inclination_deg":99.4531,"raan_deg":199.5989,"arg_perigee_deg":149.7271,"mean_anomaly_deg":211.3333,"bstar":0.00085798,"rev_number":58431,"period_min":103.64463710485,"perigee_km":812.87852850128,"apogee_km":1048.8511141024,"semimajor_km":7309.0018213018,"source":"CELESTRAK","updated_at":"2026-05-25T13:38:09.451784Z"}}}